Weipa Observation History
Time Wind Speed Temp Pressure Rel. Hum Rain
03/06:30am SSE 5-6 kts 18.7°c 1015.0 hPa 93% 0.0mm
03/06:00am SSE 5-6 kts 18.7°c 1014.7 hPa 93% 0.0mm
03/05:30am SSE 4-5 kts 18.8°c 1014.6 hPa 93% 0.0mm
03/05:00am SSE 4-5 kts 18.9°c 1014.5 hPa 93% 0.0mm
03/04:30am SSE 5-6 kts 19.1°c 1014.4 hPa 92% 0.0mm
03/04:00am SE 4-5 kts 19.1°c 1014.5 hPa 92% 0.0mm
03/03:30am SE 3-4 kts 19.0°c 1014.5 hPa 91% 0.0mm
03/03:00am SE 4 kts 19.2°c 1014.7 hPa 90% 0.0mm
03/02:30am SE 4-5 kts 19.1°c 1014.9 hPa 88% 0.0mm
03/02:00am CALM 0 kts 19.5°c 1015.2 hPa 84% 0.0mm
03/01:30am SE 3-5 kts 20.0°c 1015.5 hPa 83% 0.0mm
03/01:00am SSE 4-5 kts 19.9°c 1015.7 hPa 82% 0.0mm
03/12:30am ESE 1-4 kts 20.4°c 1015.8 hPa 77% 0.0mm
03/12:00am E 4-5 kts 21.3°c 1015.9 hPa 73% 0.0mm
Time Wind Speed Temp Pressure Rel. Hum Rain
02/11:30pm E 5-6 kts 21.9°c 1015.9 hPa 70% 0.0mm
02/11:00pm E 6-8 kts 22.7°c 1016.0 hPa 66% 0.0mm
02/10:30pm E 6-7 kts 23.1°c 1016.2 hPa 65% 0.0mm
02/10:00pm E 7-9 kts 23.8°c 1016.1 hPa 61% 0.0mm
02/09:30pm E 8-11 kts 24.4°c 1015.8 hPa 59% 0.0mm
02/09:00pm E 8-9 kts 24.9°c 1015.6 hPa 58% 0.0mm
02/08:30pm E 8-9 kts 25.5°c 1015.5 hPa 57% 0.0mm
02/08:00pm E 8-10 kts 25.9°c 1015.1 hPa 57% 0.0mm
02/07:30pm E 8-11 kts 26.6°c 1014.5 hPa 56% 0.0mm
02/07:00pm E 8-12 kts 27.2°c 1014.1 hPa 54% 0.0mm
02/06:30pm ESE 8-10 kts 27.9°c 1013.5 hPa 51% 0.0mm
02/06:00pm SE 7-11 kts 28.5°c 1013.0 hPa 53% 0.0mm
02/05:30pm SE 7-11 kts 29.4°c 1012.6 hPa 50% 0.0mm
02/05:00pm SE 7-10 kts 29.7°c 1012.4 hPa 50% 0.0mm
02/04:30pm SE 8-11 kts 29.2°c 1012.3 hPa 49% 0.0mm
02/04:00pm SSE 6-10 kts 29.2°c 1012.1 hPa 53% 0.0mm
02/03:30pm ESE 12-16 kts 30.4°c 1012.1 hPa 44% 0.0mm
02/03:00pm SSE 6-11 kts 29.3°c 1012.3 hPa 48% 0.0mm
02/02:30pm SSE 9-13 kts 30.6°c 1012.5 hPa 46% 0.0mm
02/02:00pm SE 9-14 kts 29.9°c 1012.9 hPa 45% 0.0mm
02/01:30pm SSE 7-10 kts 30.1°c 1013.2 hPa 49% 0.0mm
02/01:00pm SE 10-16 kts 29.5°c 1013.8 hPa 52% 0.0mm
02/12:30pm ESE 11-15 kts 29.7°c 1014.3 hPa 54% 0.0mm
02/12:00pm SE 9-15 kts 28.5°c 1014.8 hPa 56% 0.0mm
02/11:30am ESE 10-14 kts 29.4°c 1015.1 hPa 57% 0.0mm
02/11:00am E 10-15 kts 28.6°c 1015.5 hPa 60% 0.0mm
02/10:30am E 10-13 kts 27.3°c 1015.7 hPa 64% 0.0mm
02/10:00am ESE 12-15 kts 26.8°c 1016.0 hPa 66% 0.0mm
02/09:30am E 9-13 kts 26.2°c 1016.3 hPa 73% 0.0mm
02/09:00am ESE 7-10 kts 24.6°c 1016.3 hPa 77% 0.0mm
02/08:30am ESE 6-8 kts 23.4°c 1016.1 hPa 85% 0.0mm
02/08:00am SE 3-5 kts 22.2°c 1015.8 hPa 89% 0.0mm
02/07:30am SE 3-5 kts 21.0°c 1015.6 hPa 92% 0.0mm
02/07:00am SSE 3-4 kts 20.2°c 1015.3 hPa 93% 0.0mm
02/06:30am SSE 2-3 kts 20.0°c 1015.0 hPa 92% 0.0mm
02/06:00am SSE 3-4 kts 20.3°c 1015.0 hPa 92% 0.0mm
02/05:30am SSE 3 kts 20.5°c 1014.7 hPa 92% 0.0mm
02/05:00am SSE 3-4 kts 20.5°c 1014.6 hPa 91% 0.0mm
02/04:30am SE 3 kts 20.9°c 1014.4 hPa 91% 0.0mm
02/04:00am SSE 4-5 kts 20.9°c 1014.6 hPa 92% 0.0mm
02/03:30am SSE 5-6 kts 20.9°c 1014.6 hPa 92% 0.0mm
02/03:00am CALM 0 kts 20.9°c 1014.8 hPa 90% 0.0mm
02/02:30am CALM 0 kts 21.3°c 1014.9 hPa 89% 0.0mm
02/02:00am CALM 0 kts 21.3°c 1015.1 hPa 88% 0.0mm
02/01:30am CALM 0 kts 21.2°c 1015.2 hPa 87% 0.0mm
02/01:00am CALM 0 kts 21.8°c 1015.1 hPa 86% 0.0mm
02/12:30am CALM 0-1 kts 22.2°c 1015.1 hPa 85% 0.0mm
02/12:00am E 4-6 kts 23.5°c 1015.3 hPa 79% 0.0mm
Time Wind Speed Temp Pressure Rel. Hum Rain
01/11:30pm E 5-6 kts 23.8°c 1015.5 hPa 79% 0.0mm
01/11:00pm E 5-7 kts 24.2°c 1015.8 hPa 76% 0.0mm
01/10:30pm ESE 4-5 kts 24.5°c 1015.7 hPa 75% 0.0mm
01/10:00pm E 7-8 kts 25.0°c 1015.5 hPa 73% 0.0mm
01/09:30pm ENE 3-4 kts 25.6°c 1015.5 hPa 70% 0.0mm
01/09:00pm E 6-7 kts 26.4°c 1015.5 hPa 67% 0.0mm
01/08:30pm ENE 6-8 kts 26.5°c 1015.2 hPa 71% 0.0mm
01/08:00pm E 7-13 kts 26.9°c 1014.9 hPa 72% 0.0mm
01/07:30pm CALM 0-3 kts 26.3°c 1014.1 hPa 78% 0.0mm
01/07:00pm N 1-3 kts 26.4°c 1013.7 hPa 78% 0.0mm
01/06:30pm W 3-5 kts 26.3°c 1013.2 hPa 77% 0.0mm
01/06:00pm W 4-7 kts 26.9°c 1012.8 hPa 74% 0.0mm
01/05:30pm W 7-9 kts 27.9°c 1012.4 hPa 67% 0.0mm
01/05:00pm W 7-9 kts 28.3°c 1012.0 hPa 63% 0.0mm
01/04:30pm SSW 5-9 kts 29.1°c 1011.8 hPa 61% 0.0mm
01/04:00pm ESE 5-7 kts 32.2°c 1011.7 hPa 45% 0.0mm
01/03:30pm ESE 9-14 kts 31.5°c 1011.7 hPa 48% 0.0mm
01/03:00pm SE 7-11 kts 30.6°c 1011.9 hPa 49% 0.0mm
01/02:30pm SE 7-11 kts 31.4°c 1012.2 hPa 49% 0.0mm
01/02:00pm ESE 7-10 kts 31.5°c 1012.6 hPa 48% 0.0mm
01/01:30pm SE 9-13 kts 30.4°c 1013.0 hPa 50% 0.0mm
01/01:00pm SE 8-13 kts 30.7°c 1013.5 hPa 49% 0.0mm
01/12:30pm SE 9-13 kts 30.3°c 1014.2 hPa 48% 0.0mm
01/12:00pm SE 9-12 kts 29.8°c 1014.6 hPa 52% 0.0mm
01/11:30am SE 8-11 kts 29.8°c 1015.0 hPa 54% 0.0mm
01/11:00am E 10-16 kts 28.6°c 1015.2 hPa 56% 0.0mm
01/10:30am ESE 9-13 kts 27.9°c 1015.5 hPa 57% 0.0mm
01/10:00am ESE 10-13 kts 27.0°c 1015.9 hPa 64% 0.0mm
01/09:30am ESE 11-14 kts 26.5°c 1015.8 hPa 70% 0.0mm
01/09:00am SE 9-12 kts 24.9°c 1015.6 hPa 76% 0.0mm
01/08:30am SE 7-9 kts 23.5°c 1015.4 hPa 84% 0.0mm
01/08:00am SE 6-8 kts 22.2°c 1015.1 hPa 88% 0.0mm
01/07:30am ESE 5-7 kts 21.4°c 1014.7 hPa 92% 0.0mm
01/07:00am SE 1-4 kts 20.3°c 1014.5 hPa 93% 0.0mm
01/06:30am ESE 3-4 kts 20.4°c 1014.2 hPa 93% 0.0mm
01/06:00am SE 3-4 kts 20.5°c 1014.1 hPa 93% 0.0mm
01/05:30am SSE 4-5 kts 20.7°c 1014.0 hPa 93% 0.0mm
01/05:00am SSE 4 kts 20.9°c 1013.7 hPa 92% 0.0mm
01/04:30am SE 4-5 kts 21.3°c 1013.6 hPa 92% 0.0mm
01/04:00am SE 5 kts 21.6°c 1013.7 hPa 91% 0.0mm
01/03:30am SE 5-6 kts 21.3°c 1013.8 hPa 90% 0.0mm
01/03:00am SSE 1-3 kts 21.9°c 1014.0 hPa 88% 0.0mm
01/02:30am SE 3-4 kts 22.5°c 1014.3 hPa 86% 0.0mm
01/02:00am SE 4-5 kts 23.1°c 1014.7 hPa 85% 0.0mm
01/01:30am SE 4-5 kts 23.1°c 1015.0 hPa 86% 0.0mm
01/01:00am SSE 4-5 kts 22.9°c 1015.2 hPa 86% 0.0mm
01/12:30am SE 2-4 kts 23.4°c 1015.3 hPa 85% 0.0mm
01/12:00am ESE 5-6 kts 23.7°c 1015.5 hPa 83% 0.0mm